Weather History for Jacksonville Craig, FL

Change the Weather History Date:

Friday, March 1, 2013

  Actual Average Record
Temperature  
Mean Temperature 54 °F -  
Max Temperature 60 °F 68 °F 82 °F (1997)
Min Temperature 48 °F 49 °F 30 °F (2002)
Degree Days  
Heating Degree Days 11    
Growing Degree Days 4 (Base 50)    
Moisture  
Dew Point 33 °F    
Average Humidity 47    
Maximum Humidity 54    
Minimum Humidity 38    
Precipitation  
Precipitation 0.00 in - - ()
Sea Level Pressure  
Sea Level Pressure 29.97 in    
Wind  
Wind Speed 10 mph (NW)    
Max Wind Speed 14 mph    
Max Gust Speed 18 mph    
Visibility 10 miles    
Events      
Averages and records for this station are not official NWS values.
T = Trace of Precipitation, MM = Missing Value Source: NWS Daily Summary

Daily Weather History Graph

Daily Weather History Graph

Search for Another Location

Airport:

Trip Planner

Search our weather history database for the weather conditions in past years. The results will help you decide how hot, cold, wet, or windy it might be!

Date:

Astronomy

Mar. 01, 2013 Rise Set
Actual Time 6:51 AM EST 6:25 PM EST
Civil Twilight 6:27 AM EST 6:49 PM EST
Nautical Twilight 6:00 AM EST 7:17 PM EST
Astronomical Twilight 5:32 AM EST 7:44 PM EST
Moon 10:33 PM EST (3/1) 8:58 AM EST (3/1)
Length of Visible Light 12h 21m
Length of Day
11h 33m
Waning Gibbous, 83% of the Moon is Illuminated
Mar 1
Waning Gibbous
Mar 4
Last Quarter
Mar 11
New
Mar 19
First Quarter
Mar 27
Full

Hourly Weather History & Observations

Time (EST) Temp. Dew Point Humidity Pressure Visibility Wind Dir Wind Speed Gust Speed Precip Events Conditions
12:53 AM 55.9 °F 32.0 °F 40% 29.96 in 10.0 mi WNW 8.1 mph - N/A   Clear
1:53 AM 55.0 °F 33.1 °F 43% 29.95 in 10.0 mi WNW 9.2 mph - N/A   Clear
3:53 AM 53.1 °F 34.0 °F 48% 29.95 in 10.0 mi NW 13.8 mph - N/A   Clear
4:53 AM 52.0 °F 35.1 °F 53% 29.95 in 10.0 mi NNW 12.7 mph - N/A   Clear
5:53 AM 50.0 °F 33.1 °F 52% 29.97 in 10.0 mi NNW 12.7 mph 18.4 mph N/A   Clear
6:53 AM 48.9 °F 30.9 °F 50% 29.96 in 10.0 mi NNW 9.2 mph - N/A   Clear
7:53 AM 48.9 °F 30.9 °F 50% 29.99 in 10.0 mi NNW 12.7 mph - N/A   Clear
8:53 AM 50.0 °F 32.0 °F 50% 30.00 in 10.0 mi NNW 9.2 mph - N/A   Clear
9:53 AM 53.1 °F 32.0 °F 45% 30.00 in 10.0 mi NNW 12.7 mph 16.1 mph N/A   Clear
10:53 AM 52.0 °F 33.1 °F 49% 30.00 in 10.0 mi North 8.1 mph - N/A   Clear
11:53 AM 55.0 °F 32.0 °F 42% 29.99 in 10.0 mi West 8.1 mph 17.3 mph N/A   Clear
1:53 PM 59.0 °F 33.1 °F 38% 29.93 in 10.0 mi WNW 10.4 mph - N/A   Clear
2:53 PM 60.1 °F 34.0 °F 38% 29.91 in 10.0 mi North 8.1 mph - N/A   Clear
3:53 PM 59.0 °F 34.0 °F 39% 29.92 in 10.0 mi NW 9.2 mph - N/A   Clear
4:53 PM 55.9 °F 35.1 °F 45% 29.93 in 10.0 mi NW 11.5 mph - N/A   Clear
5:53 PM 55.0 °F 35.1 °F 47% 29.94 in 10.0 mi NW 8.1 mph - N/A   Clear
6:53 PM 53.1 °F 35.1 °F 50% 29.96 in 10.0 mi NNW 11.5 mph - N/A   Clear
7:53 PM 52.0 °F 34.0 °F 50% 29.98 in 10.0 mi NW 10.4 mph - N/A   Clear
9:53 PM 50.0 °F 33.1 °F 52% 30.01 in 10.0 mi NW 10.4 mph - N/A   Clear
10:53 PM 50.0 °F 33.1 °F 52% 30.01 in 10.0 mi WNW 9.2 mph - N/A   Clear
11:53 PM 48.9 °F 33.1 °F 54% 30.01 in 10.0 mi WNW 8.1 mph - N/A   Clear